Weather History for Thompson, MB

Change the Weather History Date:

Sunday, February 19, 2012

  Actual Average Record
Temperature  
Mean Temperature 6 °F -  
Max Temperature 19 °F 15 °F 32 °F (1998)
Min Temperature -7 °F -6 °F -40 °F (2008)
Degree Days  
Heating Degree Days 59    
Moisture  
Dew Point 6 °F    
Average Humidity 83    
Maximum Humidity 100    
Minimum Humidity 68    
Precipitation  
Precipitation 0.00 in 0.02 in - ()
Sea Level Pressure  
Sea Level Pressure 29.98 in    
Wind  
Wind Speed 5 mph ()    
Max Wind Speed 15 mph    
Max Gust Speed -    
Visibility 15.0 miles    
Events      
Averages and records for this station are not official NWS values.
T = Trace of Precipitation, MM = Missing Value Source: Averaged Metar Reports

Daily Weather History Graph

Daily Weather History Graph

Search for Another Location

Airport:

Trip Planner

Search our weather history database for the weather conditions in past years. The results will help you decide how hot, cold, wet, or windy it might be!

Date:

Astronomy

Feb. 19, 2012 Rise Set
Actual Time 7:47 AM CST 5:43 PM CST
Civil Twilight 7:09 AM CST 6:21 PM CST
Nautical Twilight 6:26 AM CST 7:05 PM CST
Astronomical Twilight 5:44 AM CST 7:47 PM CST
Moon 6:27 AM CST (2/19) 3:32 PM CST (2/19)
Length of Visible Light 11h 12m
Length of Day
9h 55m
Waning Crescent, 5% of the Moon is Illuminated
Feb 19
Waning Crescent
Feb 21
New
Feb 29
First Quarter
Mar 8
Full
Mar 14
Last Quarter

Hourly Weather History & Observations

Time (CST) Temp. Windchill Dew Point Humidity Pressure Visibility Wind Dir Wind Speed Gust Speed Precip Events Conditions
12:00 AM 10 °F - 9 °F 94% 29.91 in 15 mi SW 3.5 mph - -  
12:00 AM 10.4 °F 4.0 °F 8.6 °F 92% 29.91 in 15.0 mi SW 3.5 mph - N/A   Clear
1:00 AM 8.6 °F - 8.6 °F 100% 29.90 in 15.0 mi SW 2.3 mph - N/A   Clear
2:00 AM 8.6 °F - 6.8 °F 92% 29.90 in 15.0 mi Calm Calm - N/A   Clear
4:00 AM -0.4 °F - -5.8 °F 78% 29.90 in 15.0 mi West 2.3 mph - N/A   Clear
5:00 AM -0.4 °F -8.3 °F -4.0 °F 85% 29.91 in 15.0 mi West 3.5 mph - N/A   Clear
6:00 AM -5 °F - -8 °F 78% 29.93 in 15 mi Calm Calm - -  
7:00 AM -4.0 °F - -11.2 °F 71% 29.95 in 15.0 mi NNW 2.3 mph - N/A   Partly Cloudy
8:00 AM -2.2 °F -10.4 °F -9.4 °F 71% 29.96 in 15.0 mi North 3.5 mph - N/A   Partly Cloudy
9:00 AM 10.4 °F -1.5 °F 6.8 °F 85% 29.97 in 15.0 mi NNE 8.1 mph - N/A   Partly Cloudy
10:00 AM 12.2 °F 2.9 °F 10.4 °F 92% 29.99 in 15.0 mi NE 5.8 mph - N/A   Scattered Clouds
10:13 AM - - - N/A% - 15.0 mi NE 6.9 mph - N/A   Mostly Cloudy
11:00 AM 14.0 °F 5.1 °F 14.0 °F 100% 29.99 in 15.0 mi NE 5.8 mph - N/A   Mostly Cloudy
12:00 PM 16 °F - 15 °F 93% 29.99 in 15 mi NE 9.2 mph - -   Overcast
12:00 PM 15.8 °F 4.2 °F 15.8 °F 100% 29.99 in 15.0 mi ENE 9.2 mph - N/A   Overcast
1:00 PM 17.6 °F 7.3 °F 15.8 °F 93% 29.99 in 15.0 mi NE 8.1 mph - N/A   Overcast
2:00 PM 17.6 °F 8.2 °F 15.8 °F 93% 29.98 in 15.0 mi NNE 6.9 mph - N/A   Mostly Cloudy
3:00 PM 17.6 °F 9.3 °F 12.2 °F 79% 29.99 in 15.0 mi NE 5.8 mph - N/A   Mostly Cloudy
4:00 PM 19.4 °F 11.5 °F 12.2 °F 74% 29.99 in 15.0 mi East 5.8 mph - N/A   Mostly Cloudy
5:00 PM 17.6 °F 6.4 °F 10.4 °F 73% 29.99 in 15.0 mi NE 9.2 mph - N/A   Mostly Cloudy
6:00 PM 15 °F - 9 °F 68% 30.01 in 15 mi NE 9.2 mph - -   Clear
6:00 PM 15.8 °F 4.2 °F 8.6 °F 73% 30.01 in 15.0 mi NE 9.2 mph - N/A   Mostly Cloudy
7:00 PM 12.2 °F -0.2 °F 6.8 °F 79% 30.02 in 15.0 mi NE 9.2 mph - N/A   Mostly Cloudy
8:00 PM 12.2 °F 0.7 °F 5.0 °F 73% 30.04 in 15.0 mi ENE 8.1 mph - N/A   Scattered Clouds
9:00 PM 8.6 °F -7.7 °F 1.4 °F 73% 30.03 in 15.0 mi ENE 13.8 mph - N/A   Mostly Cloudy
10:00 PM 6.8 °F -10.0 °F -0.4 °F 72% 30.05 in 15.0 mi ENE 13.8 mph - N/A   Overcast
11:00 PM 5.0 °F -13.0 °F -0.4 °F 78% 30.05 in 15.0 mi ENE 15.0 mph - N/A   Overcast